Tracking 17857 objects as of 30-September-2016
HD Live streaming from Space Station
objects crossing your sky now

MAQSAT H

Track MAQSAT H now!
10-day predictions
MAQSAT H is classified as:


NORAD ID: 25023
Int'l Code: 1997-066A
Perigee: 733.3 km
Apogee: 27,139.5 km
Inclination: 7.7 °
Period: 480.0 minutes
Semi major axis: 20307 km
RCS: 21.0323 m2 (large)
Launch date: October 30, 1997
Source: European Space Agency (ESA)
Launch site: FRENCH GUIANA (FRGUI)
Your satellite tracking list
Your tracking list is empty





NASA's NSSDC Master Catalog

Two Line Element Set (TLE):
1 25023U 97066A   16273.06500971 -.00000152 +00000-0 +42113-4 0  9991
2 25023 007.7085 163.3980 6501602 207.3090 348.5048 03.09948523213777
Source of the keplerian elements: AFSPC

N2YO: 808